TIANMU-1 08

Last updated on Sat Aug 15 2026 00:02:40 GMT+0000 (Coordinated Universal Time)

1 57400U 23101B 26226.59652569 .00003186 00000+0 11091-3 0 9990 2 57400 97.2540 275.6961 0001863 271.6509 88.4519 15.30403506170571
UTC large
Height (km)
Speed (km/s)
/
Latitude / Longitude
Inclination (degrees)
Orbital Period (minutes)
Azimuth
Elevation
Range (km)
Doppler Factor

Next 0 passes for location: London (51.5072 / 0.1276)

No passes found over London.
TIANMU-1 08